Satellite-Ground Cal/Val Site Overpasses Predictions

Prediction of Satellite NPP Overpassing Cal/Val Site: Antarctic Dome C

Ground Cal/Val Site Location: Latitude: -75.10, Longitude: 123.35; Satellite-Ground Site NADIR distance within 100 km.

Table of predicted overpasses for the next 14.0 days since TLE Epoch: 1/20/2014
Interval Starting Time Ending Time Minimum Distance Time Minimum Distance (km)
1 01/21/2014 14:57:44 01/21/2014 14:58:12 01/21/2014 14:57:58 27.23
2 01/22/2014 14:39:02 01/22/2014 14:39:19 01/22/2014 14:39:11 79.89
3 01/23/2014 07:40:36 01/23/2014 07:41:04 01/23/2014 07:40:50 31.54
4 01/24/2014 07:21:52 01/24/2014 07:22:10 01/24/2014 07:22:01 78.50
5 01/26/2014 15:04:09 01/26/2014 15:04:31 01/26/2014 15:04:20 64.12
6 01/27/2014 14:45:18 01/27/2014 14:45:44 01/27/2014 14:45:31 45.12
7 01/28/2014 07:47:00 01/28/2014 07:47:21 01/28/2014 07:47:10 66.59
8 01/29/2014 07:28:09 01/29/2014 07:28:36 01/29/2014 07:28:22 41.43


NCC Satellite Cal/Val Overpasses Prediction Service
